[[{"header":{"parameterUnit":"m.s-1","parameterCategory":1,"la1":30.2991,"la2":30.254,"lo1":-89.0895,"lo2":-89.0444,"dy":0.0017,"dx":0.0017,"nx":28,"ny":28,"refTime":"2025-11-23T03:00:00:Z","depth":0,"parameterNumber":2,"parameterNumberName":"U-component_of_WINDS"},"data":[0,0,0,0,0,0,0,0,0,0,0,0,0,0,0,0,0,0,0,0,0,0,0,0,0,0,0,0,0,0,0,0,0,0,0,0,0,0,0,0,0,0,0,0,0,0,0,0,0,0,0,0,0,0,0,0,0,0,-1.0332,-1.0332,0,-1.0317,-1.0316,-1.0316,-1.028,-1.028,-1.0279,-1.0278,-1.0263,-1.0264,-1.0264,0,0,0,0,0,0,0,0,0,0,0,0,0,-1.0332,-1.0333,-1.0332,-1.0332,-1.0332,-1.0317,-1.0316,-1.0316,-1.028,-1.0279,-1.0279,-1.0278,-1.0263,-1.0264,-1.0264,0,0,0,0,0,0,0,0,0,0,0,0,0,-1.0326,-1.0333,-1.0332,-1.0312,-1.031,-1.0317,-1.0316,-1.0316,-1.0281,-1.0279,-1.0278,-1.0277,-1.0263,-1.0264,-1.0264,-1.029,0,0,-1.0266,-1.0266,0,0,0,0,0,0,0,0,-1.0327,-1.0326,-1.0315,-1.0314,-1.0311,-1.0299,-1.0311,-1.0307,-1.0281,-1.0292,-1.0278,-1.0277,-1.0276,-1.0276,-1.0275,-1.0289,-1.0288,-1.0266,-1.0266,-1.0266,-1.0266,0,0,0,0,0,0,0,-1.0327,-1.0327,-1.0326,-1.0315,-1.0313,-1.0304,-1.0302,-1.031,-1.0291,-1.0291,-1.0288,-1.0287,-1.0275,-1.0275,-1.0275,-1.0288,-1.0266,-1.0266,-1.0266,-1.0267,-1.0322,-1.0324,0,0,0,0,0,0,-1.033,-1.0327,-1.0327,-1.0326,-1.0316,-1.0305,-1.0303,-1.0304,-1.029,-1.0287,-1.0288,-1.0285,-1.0275,-1.0274,-1.0274,-1.0304,-1.0266,-1.0267,-1.0267,-1.0321,-1.0323,-1.0324,0,0,0,0,0,0,-1.033,-1.033,-1.0327,-1.0326,-1.0325,-1.0306,-1.0308,-1.0305,-1.0304,-1.0288,-1.0285,-1.0291,-1.0274,-1.0273,-1.0286,-1.0303,-1.0267,-1.0267,-1.032,-1.0322,-1.0323,-1.0363,0,0,0,0,0,0,-1.033,-1.0331,-1.034,-1.0326,-1.0325,-1.0339,-1.0309,-1.0305,-1.0305,-1.0302,-1.029,-1.0287,-1.0273,-1.0286,-1.0287,-1.0303,-1.0268,-1.0318,-1.0321,-1.0323,-1.036,-1.0366,-1.037,0,0,0,0,0,-1.0331,-1.0352,-1.0341,-1.0341,-1.0336,-1.034,-1.034,-1.0322,-1.0307,-1.0316,-1.0305,-1.0288,-1.03,-1.0287,-1.0288,-1.0304,-1.0317,-1.032,-1.0323,-1.0357,-1.0364,-1.037,0,0,0,0,0,0,-1.0368,-1.0349,-1.0337,-1.0354,-1.0349,-1.0334,-1.0345,-1.033,-1.0329,-1.0326,-1.0305,-1.0303,-1.0319,-1.0312,-1.0298,-1.0329,-1.0306,-1.0309,-1.0332,-1.0339,-1.0344,-1.0346,-1.0268,0,0,0,0,0,-1.0378,-1.0383,-1.0367,-1.0383,-1.0381,-1.0364,-1.0365,-1.0352,-1.0346,-1.0344,-1.0334,-1.033,-1.0333,-1.0335,-1.0337,-1.0358,-1.0356,-1.037,-1.0375,-1.038,-1.0383,-1.0395,-1.0402,-1.0333,-1.0333,-1.0333,0,0,-1.04,-1.039,-1.0394,-1.0391,-1.0385,-1.0391,-1.0362,-1.037,-1.0374,-1.0345,-1.0357,-1.035,-1.0343,-1.036,-1.0368,-1.0356,-1.0401,-1.0383,-1.0387,-1.0388,-1.0399,-1.0405,-1.0411,-1.0335,-1.0334,-1.0334,0,0,-1.0442,-1.0435,-1.0448,-1.0443,-1.0435,-1.0423,-1.0427,-1.0414,-1.0408,-1.0419,-1.0398,-1.0403,-1.0408,-1.0405,-1.0404,-1.0444,-1.0429,-1.0446,-1.0474,-1.0486,-1.0491,-1.0496,-1.0512,-1.0518,-1.0449,-1.0449,-1.0449,0,-1.047,-1.0477,-1.0457,-1.0466,-1.0465,-1.0439,-1.0453,-1.0449,-1.0442,-1.0443,-1.0429,-1.0436,-1.0429,-1.0446,-1.0456,-1.0456,-1.046,-1.0447,-1.0492,-1.0497,-1.0501,-1.0515,-1.0521,-1.0451,-1.0451,-1.045,-1.045,0,-1.0512,-1.0518,-1.053,-1.0524,-1.0524,-1.0536,-1.0518,-1.0521,-1.0508,-1.0498,-1.051,-1.0501,-1.0501,-1.0504,-1.0491,-1.0519,-1.0512,-1.0496,-1.0473,-1.051,-1.0523,-1.0529,-1.0454,-1.0453,-1.0453,-1.0452,0,0,-1.0578,-1.0561,-1.0566,-1.0563,-1.0552,-1.0556,-1.0567,-1.0566,-1.057,-1.0566,-1.0575,-1.058,-1.0565,-1.0563,-1.055,-1.056,-1.0595,-1.0543,-1.0542,-1.0554,-1.0626,-1.064,-1.0647,-1.0584,-1.0584,-1.0585,-1.0627,0,-1.0619,-1.0635,-1.0618,-1.0638,-1.0644,-1.0619,-1.0628,-1.0622,-1.0613,-1.0617,-1.0607,-1.0611,-1.059,-1.059,-1.0598,-1.0589,-1.0609,-1.0585,-1.0593,-1.0593,-1.0597,-1.0653,-1.0668,-1.0708,-1.0632,-1.0633,-1.0634,0,-1.0668,-1.0667,-1.0688,-1.0676,-1.0678,-1.0686,-1.0685,-1.0688,-1.0682,-1.0675,-1.0673,-1.0657,-1.0667,-1.0644,-1.0658,-1.0642,-1.0644,-1.064,-1.0641,-1.0642,-1.0617,-1.0657,-1.072,-1.0727,-1.0642,-1.0641,-1.0641,0,-1.0716,-1.0719,-1.0732,-1.073,-1.0716,-1.0723,-1.0718,-1.071,-1.0712,-1.071,-1.0711,-1.0711,-1.0711,-1.0712,-1.0697,-1.0681,-1.0713,-1.0688,-1.0708,-1.0709,-1.0717,-1.0717,-1.0783,-1.0717,-1.0716,-1.0716,-1.0716,0,-1.0764,-1.0778,-1.0753,-1.0762,-1.0777,-1.0756,-1.0773,-1.0765,-1.0758,-1.0765,-1.0743,-1.075,-1.0728,-1.0733,-1.0721,-1.0735,-1.0735,-1.0731,-1.0727,-1.0733,-1.0734,-1.0735,-1.0733,-1.0718,-1.0718,-1.0717,-1.0717,0,-1.082,-1.0804,-1.0817,-1.0803,-1.0799,-1.0812,-1.08,-1.0807,-1.0796,-1.0806,-1.0806,-1.079,-1.0794,-1.0779,-1.0781,-1.0772,-1.0794,-1.0786,-1.0796,-1.0794,-1.0816,-1.0815,-1.0885,-1.0894,-1.0821,-1.0822,-1.0822,0,-1.0852,-1.0862,-1.0849,-1.0852,-1.0848,-1.0853,-1.0854,-1.0834,-1.0836,-1.083,-1.0838,-1.0841,-1.0842,-1.0851,-1.084,-1.0842,-1.0834,-1.0858,-1.0834,-1.084,-1.0836,-1.0836,-1.0838,-1.0864,-1.0865,-1.0866,-1.0866,0,-1.0911,-1.0903,-1.0905,-1.0904,-1.0906,-1.0905,-1.0902,-1.0906,-1.0884,-1.0888,-1.0892,-1.0893,-1.0895,-1.0899,-1.0898,-1.0893,-1.0877,-1.0874,-1.0879,-1.0886,-1.0892,-1.089,-1.0812,-1.0873,-1.0872,-1.0871,-1.0871,-1.0871,-1.0957,-1.0966,-1.0958,-1.0961,-1.0957,-1.0955,-1.0962,-1.0952,-1.0955,-1.0955,-1.0943,-1.095,-1.0944,-1.0941,-1.0938,-1.0944,-1.0933,-1.0939,-1.0941,-1.0944,-1.0948,-1.089,-1.0943,-1.0943,-1.0943,-1.0943,-1.0943,0,-1.1017,-1.101,-1.1013,-1.101,-1.1013,-1.0996,-1.0992,-1.0996,-1.1002,-1.0998,-1.0999,-1.1005,-1.1008,-1.0997,-1.0999,-1.1006,-1.0998,-1.1007,-1.1007,-1.1007,-1.0957,-1.0954,-1.1013,-1.1013,-1.1013,-1.1013,-1.1013,-1.1013,-1.1048,-1.1062,-1.1052,-1.1064,-1.1058,-1.1064,-1.1064,-1.1062,-1.1058,-1.1066,-1.1068,-1.106,-1.1053,-1.1055,-1.1057,-1.1054,-1.1056,-1.1068,-1.1062,-1.1017,-1.101,-1.1004,-1.1,-1.1068,-1.1068,-1.1111,-1.1112,-1.1112]},{"header":{"parameterUnit":"m.s-1","parameterCategory":1,"la1":30.2991,"la2":30.254,"lo1":-89.0895,"lo2":-89.0444,"dy":0.0017,"dx":0.0017,"nx":28,"ny":28,"refTime":"2025-11-23T03:00:00:Z","depth":0,"parameterNumber":3,"parameterNumberName":"V-component_of_WINDS"},"data":[0,0,0,0,0,0,0,0,0,0,0,0,0,0,0,0,0,0,0,0,0,0,0,0,0,0,0,0,0,0,0,0,0,0,0,0,0,0,0,0,0,0,0,0,0,0,0,0,0,0,0,0,0,0,0,0,0,0,-0.5718,-0.5718,0,-0.5755,-0.5755,-0.5756,-0.5755,-0.5754,-0.5754,-0.5753,-0.5793,-0.5794,-0.5796,0,0,0,0,0,0,0,0,0,0,0,0,0,-0.565,-0.5651,-0.5718,-0.5719,-0.5719,-0.5755,-0.5755,-0.5756,-0.5755,-0.5754,-0.5754,-0.5753,-0.5792,-0.5794,-0.5796,0,0,0,0,0,0,0,0,0,0,0,0,0,-0.5682,-0.5651,-0.5718,-0.5723,-0.5724,-0.5755,-0.5755,-0.5756,-0.5755,-0.5754,-0.5754,-0.5753,-0.5791,-0.5794,-0.5796,-0.5825,0,0,-0.5803,-0.5804,0,0,0,0,0,0,0,0,-0.568,-0.5685,-0.5722,-0.5723,-0.5724,-0.575,-0.5746,-0.5779,-0.5755,-0.5743,-0.5753,-0.5753,-0.5779,-0.5782,-0.5791,-0.5827,-0.5828,-0.5803,-0.5804,-0.5805,-0.5806,0,0,0,0,0,0,0,-0.5678,-0.5683,-0.5733,-0.5722,-0.5723,-0.5724,-0.5728,-0.5752,-0.5765,-0.5744,-0.5744,-0.5749,-0.5779,-0.5789,-0.5792,-0.5829,-0.5803,-0.5805,-0.5806,-0.5807,-0.5894,-0.5895,0,0,0,0,0,0,-0.5674,-0.5681,-0.5732,-0.5734,-0.57,-0.5726,-0.573,-0.5742,-0.5765,-0.5767,-0.5749,-0.5748,-0.5785,-0.5789,-0.5793,-0.5831,-0.5805,-0.5807,-0.5809,-0.5893,-0.5894,-0.5895,0,0,0,0,0,0,-0.5673,-0.5679,-0.573,-0.5708,-0.5714,-0.5728,-0.5741,-0.5743,-0.5752,-0.5768,-0.5771,-0.5756,-0.5785,-0.579,-0.5818,-0.5832,-0.5808,-0.5811,-0.5892,-0.5893,-0.5895,-0.5905,0,0,0,0,0,0,-0.5671,-0.5678,-0.5689,-0.5708,-0.5715,-0.5753,-0.5742,-0.5744,-0.5756,-0.5756,-0.5776,-0.5778,-0.5785,-0.5814,-0.582,-0.5835,-0.5812,-0.5891,-0.5893,-0.5894,-0.5904,-0.5907,-0.591,0,0,0,0,0,-0.5669,-0.569,-0.5689,-0.5695,-0.5729,-0.5754,-0.5758,-0.5765,-0.5757,-0.5769,-0.5779,-0.5778,-0.5829,-0.5817,-0.5823,-0.5839,-0.589,-0.5892,-0.5894,-0.5903,-0.5906,-0.591,0,0,0,0,0,0,-0.5672,-0.5693,-0.5692,-0.572,-0.5735,-0.5754,-0.5768,-0.5768,-0.5786,-0.5785,-0.5792,-0.5797,-0.5825,-0.5835,-0.5821,-0.587,-0.5859,-0.5862,-0.5863,-0.5867,-0.587,-0.5868,-0.5814,0,0,0,0,0,-0.5676,-0.5695,-0.5712,-0.5735,-0.5743,-0.5754,-0.5765,-0.5769,-0.5785,-0.5792,-0.5804,-0.5821,-0.5841,-0.5854,-0.5873,-0.5905,-0.5911,-0.5919,-0.5922,-0.5924,-0.5928,-0.5948,-0.5953,-0.5902,-0.5902,-0.5902,0,0,-0.5685,-0.5698,-0.5709,-0.5736,-0.5748,-0.5768,-0.5759,-0.578,-0.5796,-0.5795,-0.5823,-0.5833,-0.5852,-0.5882,-0.5896,-0.5891,-0.5943,-0.5927,-0.5929,-0.5931,-0.5951,-0.5956,-0.596,-0.5904,-0.5903,-0.5903,0,0,-0.5712,-0.5722,-0.5744,-0.5757,-0.5776,-0.5784,-0.5789,-0.5808,-0.5815,-0.5842,-0.5843,-0.5862,-0.5896,-0.591,-0.5922,-0.5956,-0.5956,-0.5962,-0.5978,-0.5998,-0.6002,-0.6005,-0.602,-0.6025,-0.5965,-0.5965,-0.5965,0,-0.572,-0.575,-0.5756,-0.5778,-0.579,-0.5791,-0.5814,-0.5826,-0.585,-0.586,-0.5853,-0.5898,-0.591,-0.5945,-0.5954,-0.5962,-0.5971,-0.596,-0.6,-0.6004,-0.6008,-0.6022,-0.6027,-0.5966,-0.5966,-0.5966,-0.5966,0,-0.5761,-0.5781,-0.5797,-0.5821,-0.5835,-0.5858,-0.5868,-0.5882,-0.5885,-0.5894,-0.5924,-0.5939,-0.5962,-0.5971,-0.5973,-0.6007,-0.6004,-0.5999,-0.5988,-0.6013,-0.6027,-0.6032,-0.5967,-0.5967,-0.5966,-0.5966,0,0,-0.579,-0.5819,-0.5825,-0.5837,-0.5858,-0.5875,-0.5898,-0.5921,-0.5935,-0.5951,-0.5973,-0.6002,-0.5999,-0.6012,-0.6016,-0.6033,-0.6063,-0.6027,-0.6027,-0.6035,-0.6104,-0.6109,-0.6115,-0.6062,-0.6063,-0.6064,-0.6104,0,-0.5821,-0.5862,-0.5869,-0.5906,-0.5926,-0.5928,-0.5948,-0.5965,-0.5974,-0.5994,-0.6004,-0.6026,-0.6018,-0.6027,-0.6043,-0.6056,-0.6077,-0.6052,-0.6084,-0.6085,-0.6082,-0.6122,-0.6127,-0.6164,-0.6109,-0.6109,-0.611,0,-0.5862,-0.5881,-0.592,-0.5941,-0.595,-0.5969,-0.5992,-0.601,-0.6029,-0.6035,-0.6051,-0.6054,-0.608,-0.6067,-0.6104,-0.6087,-0.6101,-0.6109,-0.611,-0.6115,-0.6101,-0.6131,-0.6175,-0.6182,-0.6118,-0.6117,-0.6117,0,-0.5883,-0.5918,-0.5947,-0.5957,-0.5981,-0.5995,-0.6006,-0.6025,-0.6039,-0.6059,-0.6069,-0.6092,-0.6105,-0.6124,-0.6134,-0.6123,-0.6171,-0.6158,-0.6179,-0.6179,-0.619,-0.619,-0.624,-0.6195,-0.6195,-0.6195,-0.6194,0,-0.5917,-0.5942,-0.5957,-0.5975,-0.6003,-0.6011,-0.6039,-0.605,-0.6067,-0.6088,-0.609,-0.611,-0.612,-0.6142,-0.615,-0.6181,-0.6186,-0.6193,-0.6196,-0.6195,-0.6194,-0.6205,-0.6204,-0.6196,-0.6196,-0.6195,-0.6195,0,-0.5946,-0.5956,-0.5988,-0.601,-0.6016,-0.6036,-0.6055,-0.6073,-0.6083,-0.611,-0.6117,-0.6132,-0.6158,-0.617,-0.6201,-0.6207,-0.6244,-0.6242,-0.6237,-0.6239,-0.626,-0.6258,-0.632,-0.633,-0.6276,-0.6277,-0.6277,0,-0.5968,-0.5987,-0.6011,-0.6026,-0.6037,-0.606,-0.6075,-0.6084,-0.61,-0.6125,-0.6141,-0.6167,-0.6189,-0.6231,-0.6246,-0.6271,-0.6272,-0.6292,-0.6276,-0.6276,-0.6276,-0.6276,-0.6279,-0.6296,-0.6297,-0.6297,-0.6297,0,-0.6007,-0.6012,-0.6034,-0.6058,-0.6077,-0.6096,-0.6115,-0.6127,-0.6139,-0.6157,-0.6184,-0.6201,-0.6235,-0.6262,-0.6288,-0.6301,-0.6302,-0.6302,-0.6309,-0.6309,-0.6306,-0.6311,-0.6248,-0.6301,-0.6301,-0.63,-0.63,-0.63,-0.6035,-0.6053,-0.6074,-0.6099,-0.6114,-0.6133,-0.6152,-0.6164,-0.6187,-0.6215,-0.6219,-0.6249,-0.627,-0.6306,-0.632,-0.6344,-0.6339,-0.6348,-0.6351,-0.6354,-0.6357,-0.6301,-0.6349,-0.6349,-0.6349,-0.6348,-0.6348,0,-0.6077,-0.6091,-0.6113,-0.6141,-0.6161,-0.616,-0.6181,-0.6199,-0.6225,-0.6244,-0.6266,-0.6299,-0.6326,-0.6343,-0.637,-0.6387,-0.6388,-0.6394,-0.6394,-0.6398,-0.6358,-0.6351,-0.6393,-0.6393,-0.6393,-0.6393,-0.6393,-0.6393,-0.6101,-0.6133,-0.6141,-0.6181,-0.6194,-0.6224,-0.6237,-0.6255,-0.6271,-0.6307,-0.633,-0.6341,-0.636,-0.6389,-0.6415,-0.6419,-0.6431,-0.6437,-0.6442,-0.6405,-0.64,-0.6396,-0.6389,-0.6439,-0.6439,-0.648,-0.6481,-0.6481]}]]